Track STARLINK-31923 now! 10-day predictions STARLINK-31923 is classified as:
1 60600U 24150T 24325.07634034 .00000291 00000-0 21966-4 0 9997 2 60600 53.1608 351.7239 0001232 95.0481 265.0660 15.30179742 15372